| time (UTC) | temp C | wind direction | speed KPH | gust KPH | rain 1hr cm | rain 24hr cm | rain mn cm | humidity % | barometer mb |
| 20260505041605 | 11 | 198 | 0.0 | 4.8 | 0.00 | 0.00 | 0.00 | 75 | 1011.0 |
| 20260505041503 | 11 | 203 | 0.0 | 4.8 | 0.00 | 0.00 | 0.00 | 75 | 1011.9 |
| 20260505041003 | 11 | 205 | 0.0 | 1.6 | 0.00 | 0.00 | 0.00 | 75 | 1011.9 |
| 20260505040503 | 11 | 204 | 0.0 | 3.2 | 0.00 | 0.00 | 0.00 | 75 | 1011.9 |
| 20260505040012 | 11 | 205 | 0.0 | 3.2 | 0.00 | 0.00 | 0.00 | 74 | 1011.0 |
| 20260505040004 | 11 | 204 | 0.0 | 3.2 | 0.00 | 0.00 | 0.00 | 74 | 1011.9 |
| 20260505035503 | 11 | 205 | 0.0 | 3.2 | 0.00 | 0.00 | 0.00 | 74 | 1011.8 |
| 20260505035003 | 12 | 206 | 0.0 | 3.2 | 0.00 | 0.00 | 0.00 | 74 | 1011.8 |
| 20260505034504 | 11 | 208 | 0.0 | 3.2 | 0.00 | 0.00 | 0.00 | 73 | 1010.8 |
| 20260505034003 | 12 | 199 | 0.0 | 3.2 | 0.00 | 0.00 | 0.00 | 73 | 1011.7 |
| 20260505033503 | 12 | 198 | 0.0 | 3.2 | 0.00 | 0.00 | 0.00 | 73 | 1011.7 |
| 20260505033024 | 12 | 198 | 0.0 | 8.0 | 0.00 | 0.00 | 0.00 | 72 | 1011.7 |
| 20260505033008 | 11 | 199 | 0.0 | 3.2 | 0.00 | 0.00 | 0.00 | 72 | 1010.8 |
| 20260505032503 | 12 | 202 | 0.0 | 8.0 | 0.00 | 0.00 | 0.00 | 72 | 1011.7 |
| 20260505032003 | 12 | 208 | 0.0 | 4.8 | 0.00 | 0.00 | 0.00 | 72 | 1011.7 |
| 20260505031513 | 12 | 216 | 0.0 | 4.8 | 0.00 | 0.00 | 0.00 | 71 | 1010.8 |
| 20260505031503 | 12 | 203 | 0.0 | 4.8 | 0.00 | 0.00 | 0.00 | 71 | 1011.7 |
| 20260505031003 | 12 | 198 | 0.0 | 4.8 | 0.00 | 0.00 | 0.00 | 71 | 1011.7 |
| 20260505030503 | 12 | 199 | 0.0 | 4.8 | 0.00 | 0.00 | 0.00 | 70 | 1011.8 |
| 20260505030018 | 12 | 200 | 0.0 | 3.2 | 0.00 | 0.00 | 0.00 | 70 | 1010.8 |
| 20260505030003 | 12 | 200 | 0.0 | 3.2 | 0.00 | 0.00 | 0.00 | 70 | 1011.8 |
| 20260505025503 | 12 | 204 | 0.0 | 6.4 | 0.00 | 0.00 | 0.00 | 70 | 1011.8 |
| 20260505025003 | 12 | 205 | 0.0 | 6.4 | 0.00 | 0.00 | 0.00 | 69 | 1011.9 |
| 20260505024509 | 12 | 219 | 0.0 | 3.2 | 0.00 | 0.00 | 0.00 | 68 | 1011.0 |
| 20260505024503 | 12 | 223 | 0.0 | 3.2 | 0.00 | 0.00 | 0.00 | 68 | 1011.9 |
| 20260505024003 | 12 | 221 | 0.0 | 4.8 | 0.00 | 0.00 | 0.00 | 68 | 1011.9 |
| 20260505023503 | 12 | 213 | 0.0 | 4.8 | 0.00 | 0.00 | 0.00 | 68 | 1011.8 |
| 20260505023022 | 12 | 204 | 0.0 | 6.4 | 0.00 | 0.00 | 0.00 | 67 | 1011.0 |
| 20260505023003 | 12 | 208 | 0.0 | 6.4 | 0.00 | 0.00 | 0.00 | 67 | 1011.9 |
| 20260505022503 | 13 | 213 | 0.0 | 6.4 | 0.00 | 0.00 | 0.00 | 67 | 1011.9 |
| 20260505022003 | 13 | 216 | 0.0 | 3.2 | 0.00 | 0.00 | 0.00 | 66 | 1011.9 |
| 20260505021526 | 12 | 211 | 0.0 | 4.8 | 0.00 | 0.00 | 0.00 | 66 | 1011.0 |
| 20260505021503 | 13 | 216 | 0.0 | 4.8 | 0.00 | 0.00 | 0.00 | 66 | 1011.9 |
| 20260505021024 | 13 | 214 | 0.0 | 4.8 | 0.00 | 0.00 | 0.00 | 65 | 1011.8 |
| 20260505020503 | 13 | 212 | 0.0 | 1.6 | 0.00 | 0.00 | 0.00 | 65 | 1011.8 |
| 20260505020018 | 13 | 212 | 0.0 | 4.8 | 0.00 | 0.00 | 0.00 | 64 | 1010.9 |
| 20260505020003 | 13 | 213 | 0.0 | 4.8 | 0.00 | 0.00 | 0.00 | 64 | 1011.9 |
| 20260505015503 | 13 | 212 | 0.0 | 4.8 | 0.00 | 0.00 | 0.00 | 63 | 1011.8 |
| 20260505015003 | 13 | 203 | 0.0 | 3.2 | 0.00 | 0.00 | 0.00 | 63 | 1011.8 |
| 20260505014516 | 13 | 208 | 0.0 | 4.8 | 0.00 | 0.00 | 0.00 | 63 | 1010.9 |
| 20260505014503 | 13 | 203 | 0.0 | 4.8 | 0.00 | 0.00 | 0.00 | 62 | 1011.8 |
| 20260505014024 | 13 | 210 | 0.0 | 4.8 | 0.00 | 0.00 | 0.00 | 62 | 1011.8 |
| 20260505013503 | 13 | 222 | 0.0 | 4.8 | 0.00 | 0.00 | 0.00 | 61 | 1011.7 |
| 20260505013017 | 13 | 230 | 0.0 | 4.8 | 0.00 | 0.00 | 0.00 | 60 | 1010.8 |
| 20260505013003 | 13 | 223 | 0.0 | 4.8 | 0.00 | 0.00 | 0.00 | 60 | 1011.7 |
| 20260505012503 | 13 | 208 | 0.0 | 4.8 | 0.00 | 0.00 | 0.00 | 60 | 1011.7 |
| 20260505012003 | 14 | 217 | 0.0 | 4.8 | 0.00 | 0.00 | 0.00 | 59 | 1011.5 |
| 20260505011512 | 13 | 201 | 0.0 | 4.8 | 0.00 | 0.00 | 0.00 | 58 | 1010.5 |
| 20260505011503 | 14 | 236 | 0.0 | 4.8 | 0.00 | 0.00 | 0.00 | 58 | 1011.4 |
| 20260505011003 | 14 | 229 | 1.6 | 6.4 | 0.00 | 0.00 | 0.00 | 58 | 1011.3 |
| 20260505010503 | 14 | 227 | 1.6 | 6.4 | 0.00 | 0.00 | 0.00 | 57 | 1011.2 |
| 20260505010004 | 14 | 259 | 0.0 | 6.4 | 0.00 | 0.00 | 0.00 | 57 | 1010.2 |
| 20260505005503 | 14 | 217 | 1.6 | 8.0 | 0.00 | 0.00 | 0.00 | 57 | 1011.1 |
| 20260505005004 | 14 | 216 | 1.6 | 8.0 | 0.00 | 0.00 | 0.00 | 56 | 1011.0 |
| 20260505004509 | 14 | 200 | 0.0 | 8.0 | 0.00 | 0.00 | 0.00 | 56 | 1010.0 |
| 20260505004503 | 14 | 234 | 1.6 | 6.4 | 0.00 | 0.00 | 0.00 | 56 | 1010.9 |
| 20260505004003 | 14 | 243 | 1.6 | 6.4 | 0.00 | 0.00 | 0.00 | 56 | 1010.8 |
| 20260505003503 | 15 | 245 | 1.6 | 12.9 | 0.00 | 0.00 | 0.00 | 56 | 1010.7 |
| 20260505003010 | 14 | 277 | 1.6 | 12.9 | 0.00 | 0.00 | 0.00 | 56 | 1009.6 |
| 20260505003003 | 15 | 247 | 1.6 | 12.9 | 0.00 | 0.00 | 0.00 | 56 | 1010.5 |
| 20260505002503 | 15 | 204 | 0.0 | 4.8 | 0.00 | 0.00 | 0.00 | 55 | 1010.4 |
| 20260505002003 | 15 | 204 | 0.0 | 4.8 | 0.00 | 0.00 | 0.00 | 55 | 1010.3 |
| 20260505001605 | 15 | 204 | 0.0 | 6.4 | 0.00 | 0.00 | 0.00 | 54 | 1009.2 |
| 20260505001503 | 15 | 203 | 0.0 | 6.4 | 0.00 | 0.00 | 0.00 | 55 | 1010.2 |
| 20260505001003 | 15 | 205 | 0.0 | 6.4 | 0.00 | 0.00 | 0.00 | 54 | 1010.1 |
| 20260505000524 | 15 | 205 | 0.0 | 4.8 | 0.00 | 0.00 | 0.00 | 53 | 1010.1 |
| 20260505000022 | 15 | 200 | 0.0 | 4.8 | 0.00 | 0.00 | 0.00 | 53 | 1009.1 |
| 20260505000003 | 15 | 197 | 0.0 | 4.8 | 0.00 | 0.00 | 0.00 | 53 | 1010.0 |
| 20260504235503 | 16 | 197 | 0.0 | 4.8 | 0.00 | 0.00 | 0.00 | 52 | 1009.8 |
| 20260504235003 | 16 | 200 | 0.0 | 3.2 | 0.00 | 0.00 | 0.00 | 52 | 1009.8 |
| 20260504234603 | 16 | 201 | 0.0 | 6.4 | 0.00 | 0.00 | 0.00 | 51 | 1008.8 |
| 20260504234503 | 16 | 202 | 1.6 | 6.4 | 0.00 | 0.00 | 0.00 | 51 | 1009.7 |
| 20260504234003 | 16 | 204 | 1.6 | 6.4 | 0.00 | 0.00 | 0.00 | 50 | 1009.6 |
| 20260504233503 | 17 | 212 | 0.0 | 6.4 | 0.00 | 0.00 | 0.00 | 48 | 1009.5 |
| 20260504233016 | 17 | 200 | 0.0 | 6.4 | 0.00 | 0.00 | 0.00 | 47 | 1008.5 |
| 20260504233003 | 17 | 218 | 1.6 | 6.4 | 0.00 | 0.00 | 0.00 | 47 | 1009.4 |
| 20260504232503 | 17 | 218 | 1.6 | 4.8 | 0.00 | 0.00 | 0.00 | 46 | 1009.4 |
| 20260504232003 | 17 | 219 | 1.6 | 6.4 | 0.00 | 0.00 | 0.00 | 46 | 1009.3 |
| 20260504231524 | 17 | 216 | 1.6 | 9.7 | 0.00 | 0.00 | 0.00 | 46 | 1009.2 |
| 20260504231512 | 17 | 236 | 0.0 | 9.7 | 0.00 | 0.00 | 0.00 | 46 | 1008.3 |
| 20260504231003 | 17 | 215 | 1.6 | 9.7 | 0.00 | 0.00 | 0.00 | 45 | 1009.2 |
| 20260504230503 | 17 | 222 | 1.6 | 16.1 | 0.00 | 0.00 | 0.00 | 45 | 1009.0 |
| 20260504230007 | 17 | 193 | 1.6 | 16.1 | 0.00 | 0.00 | 0.00 | 45 | 1008.0 |
| 20260504230003 | 17 | 227 | 3.2 | 16.1 | 0.00 | 0.00 | 0.00 | 45 | 1009.0 |
| 20260504225503 | 18 | 227 | 1.6 | 8.0 | 0.00 | 0.00 | 0.00 | 45 | 1009.0 |
| 20260504225003 | 18 | 216 | 1.6 | 8.0 | 0.00 | 0.00 | 0.00 | 45 | 1008.8 |
| 20260504224503 | 18 | 231 | 3.2 | 19.3 | 0.00 | 0.00 | 0.00 | 45 | 1008.8 |
| 20260504224003 | 18 | 237 | 4.8 | 19.3 | 0.00 | 0.00 | 0.00 | 44 | 1008.7 |
| 20260504223503 | 18 | 224 | 3.2 | 16.1 | 0.00 | 0.00 | 0.00 | 44 | 1008.6 |
| 20260504223021 | 18 | 171 | 3.2 | 12.9 | 0.00 | 0.00 | 0.00 | 44 | 1007.7 |
| 20260504223003 | 18 | 213 | 1.6 | 14.5 | 0.00 | 0.00 | 0.00 | 44 | 1008.6 |
| 20260504222503 | 18 | 215 | 1.6 | 12.9 | 0.00 | 0.00 | 0.00 | 43 | 1008.5 |
| 20260504222003 | 18 | 228 | 3.2 | 14.5 | 0.00 | 0.00 | 0.00 | 42 | 1008.5 |
| 20260504221517 | 18 | 236 | 3.2 | 14.5 | 0.00 | 0.00 | 0.00 | 42 | 1007.6 |
| 20260504221503 | 19 | 242 | 3.2 | 14.5 | 0.00 | 0.00 | 0.00 | 42 | 1008.5 |
| 20260504221003 | 19 | 220 | 3.2 | 16.1 | 0.00 | 0.00 | 0.00 | 41 | 1008.4 |
| 20260504220503 | 19 | 217 | 3.2 | 16.1 | 0.00 | 0.00 | 0.00 | 41 | 1008.6 |
| 20260504220008 | 19 | 232 | 3.2 | 11.3 | 0.00 | 0.00 | 0.00 | 41 | 1007.7 |
| 20260504220003 | 19 | 233 | 3.2 | 11.3 | 0.00 | 0.00 | 0.00 | 41 | 1008.4 |
| 20260504215503 | 19 | 225 | 3.2 | 11.3 | 0.00 | 0.00 | 0.00 | 41 | 1008.5 |
| 20260504215003 | 19 | 216 | 3.2 | 11.3 | 0.00 | 0.00 | 0.00 | 40 | 1008.5 |
| 20260504214522 | 19 | 231 | 1.6 | 11.3 | 0.00 | 0.00 | 0.00 | 39 | 1007.5 |
| 20260504214503 | 20 | 214 | 3.2 | 11.3 | 0.00 | 0.00 | 0.00 | 39 | 1008.4 |
| 20260504214024 | 20 | 217 | 3.2 | 27.4 | 0.00 | 0.00 | 0.00 | 40 | 1008.4 |
| 20260504213503 | 20 | 221 | 3.2 | 27.4 | 0.00 | 0.00 | 0.00 | 39 | 1008.3 |
| 20260504213011 | 20 | 221 | 1.6 | 12.9 | 0.00 | 0.00 | 0.00 | 38 | 1007.5 |
| 20260504213003 | 20 | 212 | 1.6 | 12.9 | 0.00 | 0.00 | 0.00 | 38 | 1008.4 |
| 20260504212503 | 20 | 207 | 3.2 | 20.9 | 0.00 | 0.00 | 0.00 | 38 | 1008.2 |
| 20260504212003 | 20 | 201 | 4.8 | 20.9 | 0.00 | 0.00 | 0.00 | 37 | 1008.2 |
| 20260504211524 | 20 | 213 | 3.2 | 16.1 | 0.00 | 0.00 | 0.00 | 36 | 1008.2 |
| 20260504211512 | 20 | 178 | 3.2 | 16.1 | 0.00 | 0.00 | 0.00 | 36 | 1007.3 |
| 20260504211003 | 21 | 226 | 3.2 | 20.9 | 0.00 | 0.00 | 0.00 | 35 | 1008.2 |
| 20260504210503 | 21 | 229 | 3.2 | 20.9 | 0.00 | 0.00 | 0.00 | 35 | 1008.2 |
| 20260504210014 | 21 | 244 | 0.0 | 14.5 | 0.00 | 0.00 | 0.00 | 34 | 1007.2 |
| 20260504210003 | 21 | 232 | 3.2 | 14.5 | 0.00 | 0.00 | 0.00 | 34 | 1008.1 |
| 20260504205503 | 21 | 212 | 3.2 | 11.3 | 0.00 | 0.00 | 0.00 | 34 | 1008.1 |
| 20260504205003 | 21 | 213 | 3.2 | 12.9 | 0.00 | 0.00 | 0.00 | 34 | 1008.0 |
| 20260504204515 | 20 | 196 | 3.2 | 12.9 | 0.00 | 0.00 | 0.00 | 33 | 1007.1 |
| 20260504204503 | 21 | 215 | 3.2 | 16.1 | 0.00 | 0.00 | 0.00 | 33 | 1008.1 |
| 20260504204003 | 21 | 218 | 3.2 | 16.1 | 0.00 | 0.00 | 0.00 | 34 | 1008.1 |
| 20260504203503 | 21 | 228 | 4.8 | 16.1 | 0.00 | 0.00 | 0.00 | 32 | 1008.1 |
| 20260504203009 | 20 | 241 | 4.8 | 19.3 | 0.00 | 0.00 | 0.00 | 33 | 1007.2 |
| 20260504203003 | 21 | 226 | 4.8 | 20.9 | 0.00 | 0.00 | 0.00 | 33 | 1008.0 |
| 20260504202524 | 21 | 227 | 4.8 | 20.9 | 0.00 | 0.00 | 0.00 | 34 | 1008.1 |
| 20260504202003 | 20 | 226 | 4.8 | 19.3 | 0.00 | 0.00 | 0.00 | 34 | 1008.2 |
| 20260504201524 | 20 | 214 | 4.8 | 19.3 | 0.00 | 0.00 | 0.00 | 33 | 1008.1 |
| 20260504201515 | 20 | 195 | 6.4 | 19.3 | 0.00 | 0.00 | 0.00 | 33 | 1007.3 |
| 20260504201003 | 20 | 207 | 3.2 | 11.3 | 0.00 | 0.00 | 0.00 | 33 | 1008.1 |
| 20260504200503 | 20 | 222 | 3.2 | 14.5 | 0.00 | 0.00 | 0.00 | 32 | 1008.2 |
| 20260504200114 | 20 | 217 | 3.2 | 14.5 | 0.00 | 0.00 | 0.00 | 31 | 1007.3 |
| 20260504200003 | 21 | 228 | 4.8 | 14.5 | 0.00 | 0.00 | 0.00 | 32 | 1008.3 |
| 20260504195503 | 21 | 235 | 4.8 | 12.9 | 0.00 | 0.00 | 0.00 | 32 | 1008.3 |
| 20260504195024 | 21 | 241 | 4.8 | 12.9 | 0.00 | 0.00 | 0.00 | 31 | 1008.2 |
| 20260504194516 | 21 | 238 | 3.2 | 16.1 | 0.00 | 0.00 | 0.00 | 32 | 1007.4 |
| 20260504194503 | 21 | 215 | 4.8 | 16.1 | 0.00 | 0.00 | 0.00 | 32 | 1008.2 |
| 20260504194003 | 21 | 213 | 4.8 | 16.1 | 0.00 | 0.00 | 0.00 | 32 | 1008.3 |
| 20260504193524 | 21 | 231 | 4.8 | 11.3 | 0.00 | 0.00 | 0.00 | 31 | 1008.3 |
| 20260504193024 | 21 | 237 | 3.2 | 14.5 | 0.00 | 0.00 | 0.00 | 31 | 1008.2 |
| 20260504193005 | 20 | 305 | 1.6 | 14.5 | 0.00 | 0.00 | 0.00 | 31 | 1007.3 |
| 20260504192503 | 21 | 243 | 3.2 | 14.5 | 0.00 | 0.00 | 0.00 | 30 | 1008.3 |
| 20260504192003 | 21 | 237 | 3.2 | 12.9 | 0.00 | 0.00 | 0.00 | 32 | 1008.2 |
| 20260504191518 | 20 | 249 | 1.6 | 20.9 | 0.00 | 0.00 | 0.00 | 31 | 1007.3 |
| 20260504191503 | 21 | 215 | 4.8 | 20.9 | 0.00 | 0.00 | 0.00 | 31 | 1008.2 |
| 20260504191003 | 21 | 222 | 4.8 | 20.9 | 0.00 | 0.00 | 0.00 | 30 | 1008.1 |
| 20260504190503 | 21 | 239 | 3.2 | 11.3 | 0.00 | 0.00 | 0.00 | 32 | 1008.3 |
| 20260504190006 | 20 | 272 | 1.6 | 16.1 | 0.00 | 0.00 | 0.00 | 33 | 1007.5 |
| 20260504190003 | 21 | 218 | 4.8 | 17.7 | 0.00 | 0.00 | 0.00 | 33 | 1008.3 |
| 20260504185503 | 21 | 228 | 4.8 | 17.7 | 0.00 | 0.00 | 0.00 | 31 | 1008.4 |
| 20260504185003 | 21 | 242 | 4.8 | 14.5 | 0.00 | 0.00 | 0.00 | 32 | 1008.4 |
| 20260504184506 | 20 | 205 | 4.8 | 16.1 | 0.00 | 0.00 | 0.00 | 31 | 1007.8 |
| 20260504184503 | 21 | 231 | 6.4 | 20.9 | 0.00 | 0.00 | 0.00 | 31 | 1008.6 |
| 20260504184024 | 21 | 236 | 6.4 | 20.9 | 0.00 | 0.00 | 0.00 | 31 | 1008.7 |
| 20260504183503 | 21 | 248 | 4.8 | 16.1 | 0.00 | 0.00 | 0.00 | 31 | 1008.6 |
| 20260504183016 | 21 | 245 | 4.8 | 14.5 | 0.00 | 0.00 | 0.00 | 31 | 1007.8 |
| 20260504183003 | 21 | 248 | 3.2 | 14.5 | 0.00 | 0.00 | 0.00 | 31 | 1008.7 |
| 20260504182524 | 21 | 253 | 1.6 | 8.0 | 0.00 | 0.00 | 0.00 | 30 | 1008.7 |
| 20260504182003 | 21 | 259 | 3.2 | 11.3 | 0.00 | 0.00 | 0.00 | 31 | 1008.7 |
| 20260504181515 | 21 | 267 | 3.2 | 14.5 | 0.00 | 0.00 | 0.00 | 30 | 1007.9 |
| 20260504181503 | 21 | 251 | 4.8 | 14.5 | 0.00 | 0.00 | 0.00 | 30 | 1008.8 |
| 20260504181003 | 21 | 245 | 4.8 | 14.5 | 0.00 | 0.00 | 0.00 | 30 | 1008.8 |
| 20260504180503 | 21 | 242 | 3.2 | 6.4 | 0.00 | 0.00 | 0.00 | 31 | 1008.8 |
| 20260504180005 | 21 | 229 | 1.6 | 9.7 | 0.00 | 0.00 | 0.00 | 30 | 1008.1 |
| 20260504180003 | 21 | 245 | 3.2 | 9.7 | 0.00 | 0.00 | 0.00 | 30 | 1008.9 |
| 20260504175503 | 21 | 241 | 3.2 | 11.3 | 0.00 | 0.00 | 0.00 | 32 | 1009.0 |
| 20260504175003 | 21 | 242 | 4.8 | 20.9 | 0.00 | 0.00 | 0.00 | 33 | 1008.8 |
| 20260504174603 | 20 | 214 | 1.6 | 20.9 | 0.00 | 0.00 | 0.00 | 31 | 1008.1 |
| 20260504174503 | 20 | 246 | 6.4 | 20.9 | 0.00 | 0.00 | 0.00 | 32 | 1008.9 |
| 20260504174024 | 21 | 238 | 6.4 | 19.3 | 0.00 | 0.00 | 0.00 | 30 | 1009.0 |
| 20260504173503 | 20 | 227 | 4.8 | 14.5 | 0.00 | 0.00 | 0.00 | 31 | 1009.1 |
| 20260504173013 | 20 | 254 | 3.2 | 12.9 | 0.00 | 0.00 | 0.00 | 30 | 1008.0 |
| 20260504173003 | 21 | 229 | 4.8 | 12.9 | 0.00 | 0.00 | 0.00 | 30 | 1008.9 |
| 20260504172503 | 21 | 246 | 3.2 | 12.9 | 0.00 | 0.00 | 0.00 | 31 | 1008.8 |
| 20260504172003 | 21 | 245 | 3.2 | 16.1 | 0.00 | 0.00 | 0.00 | 33 | 1008.9 |
| 20260504171518 | 20 | 217 | 1.6 | 12.9 | 0.00 | 0.00 | 0.00 | 30 | 1008.1 |
| 20260504171503 | 20 | 253 | 3.2 | 16.1 | 0.00 | 0.00 | 0.00 | 30 | 1009.0 |
| 20260504171003 | 20 | 250 | 4.8 | 17.7 | 0.00 | 0.00 | 0.00 | 31 | 1009.0 |
| 20260504170524 | 20 | 241 | 4.8 | 20.9 | 0.00 | 0.00 | 0.00 | 34 | 1009.0 |
| 20260504151003 | 18 | 243 | 1.6 | 11.3 | 0.00 | 0.00 | 0.00 | 36 | 1010.5 |
| 20260504150524 | 18 | 238 | 3.2 | 19.3 | 0.00 | 0.00 | 0.00 | 37 | 1010.5 |
| 20260504141024 | 17 | 244 | 3.2 | 11.3 | 0.00 | 0.00 | 0.00 | 42 | 1010.9 |
| 20260504140503 | 17 | 245 | 1.6 | 8.0 | 0.00 | 0.00 | 0.00 | 41 | 1011.0 |
| 20260504130503 | 13 | 233 | 3.2 | 12.9 | 0.00 | 0.00 | 0.00 | 50 | 1011.7 |
| 20260504110503 | 7 | 262 | 0.0 | 3.2 | 0.00 | 0.00 | 0.00 | 63 | 1011.9 |
| 20260504100503 | 6 | 242 | 0.0 | 1.6 | 0.00 | 0.00 | 0.00 | 67 | 1011.8 |
| 20260504081524 | 6 | 0 | 0.0 | 0.0 | 0.00 | 0.00 | 0.00 | 64 | 1011.6 |
| 20260504081508 | 6 | 240 | 0.0 | 0.0 | 0.00 | 0.00 | 0.00 | 64 | 1010.8 |
| 20260504081003 | 6 | 0 | 0.0 | 0.0 | 0.00 | 0.00 | 0.00 | 65 | 1011.6 |
| 20260504080503 | 6 | 0 | 0.0 | 0.0 | 0.00 | 0.00 | 0.00 | 65 | 1011.7 |
| 20260504050503 | 4 | 0 | 0.0 | 0.0 | 0.00 | 0.00 | 0.00 | 70 | 1011.5 |
| 20260504050024 | 4 | 236 | 0.0 | 1.6 | 0.00 | 0.00 | 0.00 | 70 | 1011.4 |
| 20260504050009 | 3 | 237 | 0.0 | 0.0 | 0.00 | 0.00 | 0.00 | 70 | 1010.7 |